星链-6302 (STARLINK-6302 )

导读

STARLINK-6302是美国SpaceX公司星链(Starlink)星座中的一颗低轨互联网通信卫星,于2023年5月4日由猎鹰9号火箭发射入轨。作为星链星座成员,它运行在近地轨道,为全球用户提供高速低延迟的互联网接入服务,尤其覆盖偏远地区,助力全球网络互联互通,推动星链星座的全球覆盖建设进程。

基本信息
目录编号:
56396
目录名称:
STARLINK-6302
国际标识:
2023-061Y
轨道中心:
EARTH
卫星名称:
星链-6302
卫星全名:
星链-6302 (STARLINK-6302 )
卫星状态:
在轨 (已飞行1219 天)
发射日期:
2023-05-04 UTC
国别 :
美国 (US)
星等 :
--
轨道信息
数据来源 国际轨道数据
星历时间: 2026-09-04T15:19:40+0800
7小时前
查看轨道信息
半长轴: 6861.19km
偏心率: 0.0001471
轨道倾角: 43.002°
近地点辐角 271.518°
升交点赤经 258.139°
平近点角 88.550°
近地点: 482.043km
远地点: 484.063km
周期: 94.267分钟
每日圈数: 15.275788
详细信息
固有亮度:
5
最大亮度:
2.5
卫星平台:
Starlink v1.5
覆盖范围:
全球
运营商:
太空探索技术公司
运营商所在国:
美国
制造商(研发单位):
太空探索技术公司
制造商所在国:
美国
使用方式:
暂无
卫星简介
星链(Starlink)计划是由太空探索技术公司(SpaceX)提出的一个巨型低轨卫星互联网星座项目,计划在2019年至2024年间在太空搭建由约1.2万颗卫星组成的“星链”网络,其中1584颗将部署在地球上空550千米处的近地轨道,并从2020年开始工作。该卫星仍在工作。
2D轨道图
3D轨道图
轨道高度分析图
轨道倾角分析图
轨道综合分析图
查看轨道综合分析图
交会数据列表
事件ID 空间交会对象 最接近时刻(TCA) 交会距离 交会风险概率(CRP) 交会风险指数(CRI) 操作
CDM_260904-230805-639606-798821
2026-09-04T
23:08:31+0000
0.623 km
远距离
9.044649E-5 中风险 0.74
CDM_260829-081305-639606-793022
2026-08-29T
08:13:39+0000
0.584 km
远距离
7.136878E-5 中风险 0.72
CDM_260905-084205-639606-681921
2026-09-05T
08:42:19+0000
0.746 km
远距离
3.883506E-5 中风险 0.67
CDM_260905-094205-639606-793021
2026-09-05T
09:42:33+0000
0.926 km
远距离
1.660032E-5 中风险 0.59
CDM_260904-213405-639606-798821
2026-09-04T
21:34:22+0000
1.520 km
极远距离
4.833081E-6 低风险 0.49
CDM_260905-070805-639606-681921
2026-09-05T
07:08:10+0000
1.915 km
极远距离
1.845293E-6 低风险 0.4
CDM_260905-080805-639606-793021
2026-09-05T
08:08:24+0000
1.879 km
极远距离
1.71862E-6 低风险 0.4
CDM_260829-094705-639606-793022
2026-08-29T
09:47:48+0000
2.079 km
极远距离
1.347653E-6 低风险 0.38
CDM_260905-004205-639606-798821
2026-09-05T
00:42:40+0000
2.737 km
极远距离
1.186028E-6 低风险 0.36